Location: Newark
(50.0306°N, 2.3272°E)
Time: 00:02:01
(UTC+00:00)

Transit 2A Rocket - Pass Details

Date: 15 December 2019
Orbit: 593 x 910 km, 66.7° (Epoch: 24 January)

Event Time Altitude Azimuth Distance (km) Brightness Sun altitude
Rises 14:24:16 0° 183° (S) 2,947 9.1 8.7°
Reaches altitude 10° 14:26:52 10° 171° (S) 2,001 8.0 8.5°
Maximum altitude 14:30:36 27° 114° (ESE) 1,192 6.0 8.1°
Drops below altitude 10° 14:34:14 10° 57° (ENE) 1,942 6.6 7.8°
Sets 14:36:42 0° 45° (NE) 2,841 7.3 7.5°
